SCOUT X-4 DEB, 732

Orbit data source: Space-Track

SCOUT X-4 DEB, 732 is space debris in LEO originally from a launch on Thu, 19 Dec 1963 UTC launched from the Air Force Western Test Range (AFWTR). Debris objects in space refer to the collection of defunct objects orbiting the Earth. Examples of debris include non-operational satellites, rocket bodies, and fragments generated from explosions, collisions, or faulty payload assembly.

Loading next visibility...
Identifier
732, 1963-053H
Orbit
LEO
Last TLE update
13 hours ago
Origin
Manufacturer
Unknown
Mission
Spacecraft
Bus & Motor
Unknown
Mass
Unknown
Launch date (UTC)
1963-12-19 (62 years ago)
Launch vehicle
Unknown
Launch site
Air Force Western Test Range (AFWTR)
Object type
Payload
Rocket body
Debris
Shape & HBR
Unknown
Radar Cross Section
Small (<0.1 m²)

Expand to show TLE details & history

TLE from 13 hours ago
0 SCOUT X-4 DEB
1 00732U 63053H   25188.77446981  .00007762  00000-0  23642-2 0  9990
2 00732  78.5576 298.1617 0433571 216.4543 140.6370 13.99206680926848
Epoch: 2025-07-07T18:35Z
TLE epoch observation values (Epoch: 2025-07-07T18:35:14.191Z)
Latitude
-0.00004°
Longitude
93.37358°
Altitude
1,148.465 km
Speed
7.153 km/s
True Right ascension
19h 52m 38s
True Declination
0° 00' 00"
Sunlit
Object was in full shadow at epoch
Visualization orbit readout
Latitude
21.05632°
Longitude
-91.73848°
Altitude
716.011 km
Speed
7.593 km/s
Apparent Right ascension
07h 30m 47s
Apparent Declination
-7° 35' 44"
Sunlit
Object is in daylight
Visualization observer readout
Local Sidereal Time
19:28:53
Azimuth
359.117° N
Elevation
-57.677°
Doppler factor
1
Orbital elements
Apogee altitude
1,209.165 km
Perigee altitude
578.578 km
Semi-major axis
7,272.009 km
Eccentricity
0.04336
Inclination
78.5576°
RAAN
298.1617°
Arg. of periapsis
216.4543°
True anomaly
Unknown
Mean anomaly
140.637°
Eccentric anomaly
Unknown
Mean motion
3.49995 °/min
Orbital period
102.86 mins
BSTAR
0.0023642
Loading maneuver chart data...
Loading SW <> Apogee altitude chart data...
Loading historical data...
Loading historical data...
Loading historical data...
Loading historical data...
Loading historical data...
Loading historical data...
Loading historical data...

SCOUT X-4 DEB Visibility forecast

Observer location: undefined°, undefined°

Span
Click to sort rows by Start time (UTC) header in descending order
Start Az.
Max El. time (UTC)
Max El. Az.
Max El.
End time (UTC)
End Az.
14 mins2025-07-08 08:24:20.336Z195.79° SSW2025-07-08 08:31:20.336Z243.507° WSW44.245°2025-07-08 08:38:20.336Z10.001° NNE
7 mins2025-07-08 10:14:20.336Z276.85° WNW2025-07-08 10:17:20.336Z303.265° NW15.506°2025-07-08 10:21:20.336Z336.743° NNW
5 mins2025-07-08 17:31:20.336Z29.461° NE2025-07-08 17:34:20.336Z64.773° ENE15.761°2025-07-08 17:36:20.336Z89.383° E
9 mins2025-07-08 19:14:20.336Z338.746° N2025-07-08 19:19:20.336Z236.974° WSW40.774°2025-07-08 19:23:20.336Z183.04° SSW
9 mins2025-07-09 06:45:20.336Z130.334° SE2025-07-09 06:49:20.336Z93.819° ESE21.609°2025-07-09 06:54:20.336Z45.848° ENE
|